Location: Borgo
(42.3939°N, 9.2791°E)
Time: 12:46:03
(UTC+00:00)

ISS - Pass Details

Date: 25 April 2021
Orbit: 417 x 422 km, 51.6° (Epoch: 15 May)

Event Time Altitude Azimuth Distance (km) Brightness Sun altitude
Exits shadow 02:58:30 - 167° (SSE) 1,652 -1.0 -15.3°
Reaches altitude 10° 02:59:14 10° 157° (SSE) 1,495 -1.1 -15.2°
Maximum altitude 03:00:44 13° 130° (SE) 1,351 -1.0 -15.0°
Drops below altitude 10° 03:02:16 10° 103° (ESE) 1,501 -0.3 -14.7°
Sets 03:05:19 0° 73° (ENE) 2,372 1.6 -14.3°
